Time,TemperatureF,DewpointF,PressureIn,WindDirection,WindDirectionDegrees,WindSpeedMPH,WindSpeedGustMPH,Humidity,HourlyPrecipIn,Conditions,Clouds,dailyrainin,SoftwareType,DateUTC
2013-12-02 00:06:00,32.3,27.0,30.05,NNW,340,0.0,0.0,82,0.00,,,0.00,weatherlink.com 1.10,2013-12-02 05:06:00,
2013-12-02 00:22:00,31.7,27.0,30.05,NNW,340,0.0,0.0,82,0.00,,,0.00,weatherlink.com 1.10,2013-12-02 05:22:00,
2013-12-02 00:37:00,31.4,27.0,30.04,NNW,340,0.0,0.0,83,0.00,,,0.00,weatherlink.com 1.10,2013-12-02 05:37:00,
2013-12-02 00:52:00,31.1,27.0,30.03,NNW,340,0.0,0.0,84,0.00,,,0.00,weatherlink.com 1.10,2013-12-02 05:52:00,
2013-12-02 01:08:00,30.9,27.0,30.03,NNW,340,0.0,0.0,84,0.00,,,0.00,weatherlink.com 1.10,2013-12-02 06:08:00,
2013-12-02 01:24:00,30.7,26.0,30.03,NNW,340,0.0,0.0,84,0.00,,,0.00,weatherlink.com 1.10,2013-12-02 06:24:00,
2013-12-02 01:39:00,30.4,26.0,30.03,NNW,340,0.0,0.0,85,0.00,,,0.00,weatherlink.com 1.10,2013-12-02 06:39:00,
2013-12-02 01:54:00,30.8,27.0,30.04,NNW,340,0.0,0.0,86,0.00,,,0.00,weatherlink.com 1.10,2013-12-02 06:54:00,
2013-12-02 02:10:00,30.5,27.0,30.04,NNW,340,0.0,0.0,86,0.00,,,0.00,weatherlink.com 1.10,2013-12-02 07:10:00,
2013-12-02 02:25:00,30.5,27.0,30.03,NNW,340,0.0,0.0,86,0.00,,,0.00,weatherlink.com 1.10,2013-12-02 07:25:00,
2013-12-02 02:40:00,30.6,27.0,30.04,NNW,340,0.0,0.0,86,0.00,,,0.00,weatherlink.com 1.10,2013-12-02 07:40:00,
2013-12-02 02:55:00,31.0,28.0,30.03,NNW,340,0.0,0.0,87,0.00,,,0.00,weatherlink.com 1.10,2013-12-02 07:55:00,
2013-12-02 03:10:00,31.2,28.0,30.02,NNW,340,0.0,0.0,87,0.00,,,0.00,weatherlink.com 1.10,2013-12-02 08:10:00,
2013-12-02 03:27:00,31.6,28.0,30.02,NNW,340,0.0,0.0,87,0.00,,,0.00,weatherlink.com 1.10,2013-12-02 08:27:00,
2013-12-02 03:42:00,31.3,28.0,30.01,NNW,340,0.0,0.0,87,0.00,,,0.00,weatherlink.com 1.10,2013-12-02 08:42:00,
2013-12-02 03:57:00,31.4,28.0,30.01,NNW,340,0.0,0.0,87,0.00,,,0.00,weatherlink.com 1.10,2013-12-02 08:57:00,
2013-12-02 04:12:00,30.9,28.0,30.01,NNW,340,0.0,0.0,87,0.00,,,0.00,weatherlink.com 1.10,2013-12-02 09:12:00,
2013-12-02 04:27:00,30.6,27.0,30.01,NNW,340,0.0,0.0,87,0.00,,,0.00,weatherlink.com 1.10,2013-12-02 09:27:00,
2013-12-02 04:42:00,30.6,27.0,30.01,NNW,340,0.0,0.0,87,0.00,,,0.00,weatherlink.com 1.10,2013-12-02 09:42:00,
2013-12-02 04:58:00,31.0,28.0,30.01,NNW,340,0.0,0.0,88,0.00,,,0.00,weatherlink.com 1.10,2013-12-02 09:58:00,
2013-12-02 05:14:00,31.4,28.0,30.01,NNW,340,0.0,0.0,88,0.00,,,0.00,weatherlink.com 1.10,2013-12-02 10:14:00,
2013-12-02 05:29:00,31.5,28.0,30.01,NNW,340,0.0,0.0,88,0.00,,,0.00,weatherlink.com 1.10,2013-12-02 10:29:00,
2013-12-02 05:43:00,31.6,29.0,30.01,NNW,340,0.0,0.0,88,0.00,,,0.00,weatherlink.com 1.10,2013-12-02 10:43:00,
2013-12-02 06:00:00,31.5,28.0,30.02,NNW,340,0.0,0.0,88,0.00,,,0.00,weatherlink.com 1.10,2013-12-02 11:00:00,
2013-12-02 06:15:00,31.5,28.0,30.01,NNW,340,0.0,0.0,88,0.00,,,0.00,weatherlink.com 1.10,2013-12-02 11:15:00,
2013-12-02 06:30:00,31.2,28.0,30.01,NNW,340,0.0,0.0,88,0.00,,,0.00,weatherlink.com 1.10,2013-12-02 11:30:00,
2013-12-02 06:45:00,31.0,28.0,30.01,NNW,340,0.0,0.0,88,0.00,,,0.00,weatherlink.com 1.10,2013-12-02 11:45:00,
2013-12-02 07:00:00,30.9,28.0,30.01,NNW,340,0.0,0.0,88,0.00,,,0.00,weatherlink.com 1.10,2013-12-02 12:00:00,
2013-12-02 07:15:00,30.9,28.0,30.01,NNW,340,0.0,0.0,88,0.00,,,0.00,weatherlink.com 1.10,2013-12-02 12:15:00,
2013-12-02 07:32:00,31.3,28.0,30.01,NNW,340,0.0,0.0,88,0.00,,,0.00,weatherlink.com 1.10,2013-12-02 12:32:00,
2013-12-02 07:47:00,31.9,29.0,30.01,NNW,340,0.0,0.0,89,0.00,,,0.00,weatherlink.com 1.10,2013-12-02 12:47:00,
2013-12-02 08:02:00,32.4,30.0,30.01,NNW,340,0.0,0.0,89,0.00,,,0.00,weatherlink.com 1.10,2013-12-02 13:02:00,
2013-12-02 08:17:00,32.6,30.0,30.02,NE,36,0.0,3.0,89,0.00,,,0.00,weatherlink.com 1.10,2013-12-02 13:17:00,
2013-12-02 08:34:00,33.1,30.0,30.02,NE,36,0.0,0.0,89,0.00,,,0.00,weatherlink.com 1.10,2013-12-02 13:34:00,
2013-12-02 08:48:00,33.4,30.0,30.02,NE,44,0.0,1.0,88,0.00,,,0.00,weatherlink.com 1.10,2013-12-02 13:48:00,
2013-12-02 09:04:00,33.6,31.0,30.02,NE,44,0.0,0.0,89,0.00,,,0.00,weatherlink.com 1.10,2013-12-02 14:04:00,
2013-12-02 09:18:00,33.8,31.0,30.02,NE,44,0.0,1.0,88,0.00,,,0.00,weatherlink.com 1.10,2013-12-02 14:18:00,
2013-12-02 09:33:00,34.0,31.0,30.02,NNE,21,0.0,2.0,88,0.00,,,0.00,weatherlink.com 1.10,2013-12-02 14:33:00,
2013-12-02 09:50:00,34.2,31.0,30.02,ENE,78,0.0,2.0,88,0.00,,,0.00,weatherlink.com 1.10,2013-12-02 14:50:00,
2013-12-02 10:05:00,34.5,31.0,30.02,ENE,78,0.0,1.0,88,0.00,,,0.00,weatherlink.com 1.10,2013-12-02 15:05:00,
2013-12-02 10:20:00,34.8,31.0,30.02,ENE,78,0.0,1.0,87,0.00,,,0.00,weatherlink.com 1.10,2013-12-02 15:20:00,
2013-12-02 10:35:00,35.1,32.0,30.02,ENE,78,0.0,1.0,87,0.00,,,0.00,weatherlink.com 1.10,2013-12-02 15:35:00,
2013-12-02 10:52:00,35.4,32.0,30.01,ENE,78,0.0,1.0,86,0.00,,,0.00,weatherlink.com 1.10,2013-12-02 15:52:00,
2013-12-02 11:07:00,35.9,32.0,30.01,ENE,78,0.0,1.0,86,0.00,,,0.00,weatherlink.com 1.10,2013-12-02 16:07:00,
2013-12-02 11:22:00,36.3,32.0,30.00,NNW,345,0.0,0.0,85,0.00,,,0.00,weatherlink.com 1.10,2013-12-02 16:22:00,
2013-12-02 11:37:00,36.7,32.0,30.00,NNW,345,0.0,0.0,84,0.00,,,0.00,weatherlink.com 1.10,2013-12-02 16:37:00,
2013-12-02 11:52:00,36.8,32.0,30.00,NNW,345,0.0,0.0,84,0.00,,,0.00,weatherlink.com 1.10,2013-12-02 16:52:00,
2013-12-02 12:08:00,37.2,33.0,29.99,NNW,345,0.0,0.0,83,0.00,,,0.00,weatherlink.com 1.10,2013-12-02 17:08:00,
2013-12-02 12:24:00,37.4,32.0,29.98,NNW,345,0.0,0.0,82,0.00,,,0.00,weatherlink.com 1.10,2013-12-02 17:24:00,
2013-12-02 12:39:00,38.0,33.0,29.98,NNW,345,0.0,1.0,82,0.00,,,0.00,weatherlink.com 1.10,2013-12-02 17:39:00,
2013-12-02 12:55:00,38.4,33.0,29.97,NNW,345,0.0,1.0,81,0.00,,,0.00,weatherlink.com 1.10,2013-12-02 17:55:00,
2013-12-02 13:08:00,39.1,34.0,29.96,NNE,26,0.0,2.0,81,0.00,,,0.00,weatherlink.com 1.10,2013-12-02 18:08:00,
2013-12-02 13:25:00,40.5,35.0,29.96,North,5,0.0,2.0,80,0.00,,,0.00,weatherlink.com 1.10,2013-12-02 18:25:00,
2013-12-02 13:55:00,43.0,34.0,29.95,NNE,27,0.0,2.0,71,0.00,,,0.00,weatherlink.com 1.10,2013-12-02 18:55:00,
2013-12-02 14:10:00,42.5,34.0,29.94,NNE,27,0.0,1.0,72,0.00,,,0.00,weatherlink.com 1.10,2013-12-02 19:10:00,
2013-12-02 14:25:00,42.1,34.0,29.94,NNE,28,0.0,0.0,73,0.00,,,0.00,weatherlink.com 1.10,2013-12-02 19:25:00,
2013-12-02 14:42:00,41.7,34.0,29.94,NNE,28,0.0,1.0,73,0.00,,,0.00,weatherlink.com 1.10,2013-12-02 19:42:00,
2013-12-02 14:57:00,41.7,34.0,29.94,NNE,28,0.0,1.0,73,0.00,,,0.00,weatherlink.com 1.10,2013-12-02 19:57:00,
2013-12-02 15:12:00,41.0,33.0,29.94,NNE,29,0.0,2.0,73,0.00,,,0.00,weatherlink.com 1.10,2013-12-02 20:12:00,
2013-12-02 15:44:00,39.9,33.0,29.96,NNE,29,0.0,1.0,75,0.00,,,0.00,weatherlink.com 1.10,2013-12-02 20:44:00,
2013-12-02 15:58:00,39.5,33.0,29.97,NNE,29,0.0,0.0,76,0.00,,,0.00,weatherlink.com 1.10,2013-12-02 20:58:00,
2013-12-02 16:14:00,39.3,32.0,29.97,NNE,29,0.0,0.0,76,0.00,,,0.00,weatherlink.com 1.10,2013-12-02 21:14:00,
2013-12-02 16:29:00,39.1,32.0,29.97,NNE,29,0.0,0.0,77,0.00,,,0.00,weatherlink.com 1.10,2013-12-02 21:29:00,
2013-12-02 16:43:00,38.8,33.0,29.97,NNE,29,0.0,0.0,78,0.00,,,0.00,weatherlink.com 1.10,2013-12-02 21:43:00,
2013-12-02 16:58:00,37.9,32.0,29.96,NNE,29,0.0,0.0,78,0.00,,,0.00,weatherlink.com 1.10,2013-12-02 21:58:00,
2013-12-02 17:15:00,36.7,31.0,29.96,NNE,28,0.0,0.0,79,0.00,,,0.00,weatherlink.com 1.10,2013-12-02 22:15:00,
2013-12-02 17:30:00,35.9,31.0,29.96,NNE,28,0.0,0.0,81,0.00,,,0.00,weatherlink.com 1.10,2013-12-02 22:30:00,
2013-12-02 17:45:00,35.1,30.0,29.96,NNE,28,0.0,1.0,82,0.00,,,0.00,weatherlink.com 1.10,2013-12-02 22:45:00,
2013-12-02 18:00:00,34.9,30.0,29.95,NNE,28,0.0,2.0,83,0.00,,,0.00,weatherlink.com 1.10,2013-12-02 23:00:00,
2013-12-02 18:15:00,34.9,31.0,29.95,NNE,28,0.0,1.0,84,0.00,,,0.00,weatherlink.com 1.10,2013-12-02 23:15:00,
2013-12-02 18:32:00,34.3,30.0,29.96,NNE,28,0.0,0.0,84,0.00,,,0.00,weatherlink.com 1.10,2013-12-02 23:32:00,
2013-12-02 18:47:00,33.8,30.0,29.96,NNE,28,0.0,0.0,85,0.00,,,0.00,weatherlink.com 1.10,2013-12-02 23:47:00,
2013-12-02 19:02:00,33.5,30.0,29.96,NNE,29,0.0,0.0,85,0.00,,,0.00,weatherlink.com 1.10,2013-12-03 00:02:00,
2013-12-02 19:17:00,33.0,29.0,29.96,NNE,28,0.0,0.0,85,0.00,,,0.00,weatherlink.com 1.10,2013-12-03 00:17:00,
2013-12-02 19:34:00,32.2,28.0,29.95,NNE,28,0.0,0.0,85,0.00,,,0.00,weatherlink.com 1.10,2013-12-03 00:34:00,
2013-12-02 19:48:00,31.8,28.0,29.95,NNE,28,0.0,0.0,86,0.00,,,0.00,weatherlink.com 1.10,2013-12-03 00:48:00,
2013-12-02 20:03:00,31.6,28.0,29.96,NNE,28,0.0,0.0,86,0.00,,,0.00,weatherlink.com 1.10,2013-12-03 01:03:00,
2013-12-02 20:18:00,31.7,28.0,29.96,NNE,28,0.0,0.0,87,0.00,,,0.00,weatherlink.com 1.10,2013-12-03 01:18:00,
2013-12-02 20:33:00,31.6,29.0,29.96,NNE,28,0.0,0.0,88,0.00,,,0.00,weatherlink.com 1.10,2013-12-03 01:33:00,
2013-12-02 20:50:00,31.2,28.0,29.96,NNE,28,0.0,0.0,87,0.00,,,0.00,weatherlink.com 1.10,2013-12-03 01:50:00,
2013-12-02 21:05:00,31.8,29.0,29.96,NNE,28,0.0,0.0,88,0.00,,,0.00,weatherlink.com 1.10,2013-12-03 02:05:00,
2013-12-02 21:20:00,31.4,28.0,29.97,NNE,28,0.0,0.0,88,0.00,,,0.00,weatherlink.com 1.10,2013-12-03 02:20:00,
2013-12-02 21:35:00,31.2,28.0,29.97,NNE,29,0.0,0.0,88,0.00,,,0.00,weatherlink.com 1.10,2013-12-03 02:35:00,
2013-12-02 21:50:00,31.5,29.0,29.97,NNE,28,0.0,0.0,89,0.00,,,0.00,weatherlink.com 1.10,2013-12-03 02:50:00,
2013-12-02 22:05:00,31.1,28.0,29.96,NNE,28,0.0,0.0,88,0.00,,,0.00,weatherlink.com 1.10,2013-12-03 03:05:00,
2013-12-02 22:22:00,30.2,27.0,29.96,NNE,28,0.0,0.0,88,0.00,,,0.00,weatherlink.com 1.10,2013-12-03 03:22:00,
2013-12-02 22:37:00,29.9,27.0,29.96,NNE,28,0.0,0.0,88,0.00,,,0.00,weatherlink.com 1.10,2013-12-03 03:37:00,
2013-12-02 22:52:00,30.1,27.0,29.96,NNE,28,0.0,0.0,89,0.00,,,0.00,weatherlink.com 1.10,2013-12-03 03:52:00,
2013-12-02 23:07:00,30.3,28.0,29.97,NNE,28,0.0,0.0,89,0.00,,,0.00,weatherlink.com 1.10,2013-12-03 04:07:00,
2013-12-02 23:23:00,30.0,27.0,29.96,NNE,28,0.0,0.0,89,0.00,,,0.00,weatherlink.com 1.10,2013-12-03 04:23:00,
2013-12-02 23:38:00,29.9,27.0,29.96,NNE,28,0.0,0.0,89,0.00,,,0.00,weatherlink.com 1.10,2013-12-03 04:38:00,
2013-12-02 23:54:00,29.6,27.0,29.96,NNE,28,0.0,0.0,89,0.00,,,0.00,weatherlink.com 1.10,2013-12-03 04:54:00,